User: anonymous   Login
Location: Domont
(49.0278°N, 2.3264°E)
Time: 22:12:50
(UTC+00:00)
Language:

Okean O Rocket - Orbit

View from above orbital plane
View from above orbital plane
View from above satellite
View from above satellite

Ground track
Ground track

The orbit data is extracted from the following two-line orbital elements,

1 25861U 99039B   22019.84923664  .00000232  00000-0  39053-4 0  9999
2 25861  98.1927  44.2815 0016914  90.5544  82.3692 14.78706685213538
Epoch (UTC): 19 January 2022 20:22:54
Eccentricity: 0.0016914
inclination: 98.1927°
perigee height: 621 km
apogee height: 645 km
right ascension of ascending node: 44.2815°
argument of perigee: 90.5544°
revolutions per day: 14.78706685
mean anomaly at epoch: 82.3692°
orbit number at epoch: 21353

The dashed part of the orbit path shows where the satellite is in the earth's shadow,  

DLR